| time (UTC) | temp F | wind direction | speed MPH | gust MPH | rain 1hr in | rain 24hr in | rain mn in | humidity % | barometer mb |
| 20260905171054 | 76 | 326 | 0.0 | 2.0 | 0.00 | 0.01 | 0.01 | 78 | 1011.5 |
| 20260905170554 | 77 | 334 | 1.0 | 1.0 | 0.00 | 0.01 | 0.01 | 78 | 1011.6 |
| 20260905170106 | 77 | 326 | 0.0 | 1.0 | 0.00 | 0.01 | 0.01 | 79 | 1011.7 |
| 20260905165551 | 76 | 324 | 0.0 | 2.0 | 0.00 | 0.01 | 0.01 | 78 | 1011.7 |
| 20260905165054 | 76 | 0 | 1.0 | 2.0 | 0.00 | 0.01 | 0.01 | 76 | 1011.8 |
| 20260905164606 | 76 | 0 | 0.0 | 3.0 | 0.00 | 0.01 | 0.01 | 77 | 1011.8 |
| 20260905164055 | 76 | 0 | 1.0 | 3.0 | 0.00 | 0.01 | 0.01 | 76 | 1011.8 |
| 20260905163553 | 76 | 264 | 0.0 | 1.0 | 0.00 | 0.01 | 0.01 | 77 | 1012.0 |
| 20260905163105 | 76 | 262 | 0.0 | 1.0 | 0.00 | 0.01 | 0.01 | 78 | 1012.0 |
| 20260905162554 | 76 | 0 | 0.0 | 1.0 | 0.00 | 0.01 | 0.01 | 77 | 1012.0 |
| 20260905162055 | 76 | 0 | 0.0 | 3.0 | 0.00 | 0.01 | 0.01 | 76 | 1012.0 |
| 20260905161604 | 75 | 0 | 1.0 | 3.0 | 0.00 | 0.01 | 0.01 | 75 | 1012.1 |
| 20260905161053 | 76 | 105 | 0.0 | 1.0 | 0.00 | 0.01 | 0.01 | 75 | 1012.1 |
| 20260905160552 | 76 | 0 | 0.0 | 1.0 | 0.00 | 0.01 | 0.01 | 76 | 1012.2 |
| 20260905160110 | 76 | 0 | 0.0 | 1.0 | 0.00 | 0.01 | 0.01 | 78 | 1012.2 |
| 20260905155555 | 76 | 105 | 0.0 | 3.0 | 0.00 | 0.01 | 0.01 | 76 | 1012.2 |
| 20260905155054 | 76 | 105 | 1.0 | 5.0 | 0.00 | 0.01 | 0.01 | 76 | 1012.2 |
| 20260905154632 | 76 | 68 | 2.0 | 6.0 | 0.00 | 0.01 | 0.01 | 76 | 1012.2 |
| 20260905154055 | 76 | 53 | 3.0 | 6.0 | 0.00 | 0.01 | 0.01 | 75 | 1012.2 |
| 20260905153555 | 75 | 61 | 2.0 | 5.0 | 0.00 | 0.01 | 0.01 | 76 | 1012.2 |
| 20260905153135 | 75 | 323 | 2.0 | 5.0 | 0.00 | 0.01 | 0.01 | 78 | 1012.2 |
| 20260905152554 | 75 | 23 | 1.0 | 2.0 | 0.00 | 0.01 | 0.01 | 80 | 1012.3 |
| 20260905152054 | 75 | 19 | 1.0 | 2.0 | 0.00 | 0.01 | 0.01 | 79 | 1012.2 |
| 20260905151604 | 75 | 50 | 0.0 | 3.0 | 0.00 | 0.01 | 0.01 | 79 | 1012.2 |
| 20260905151053 | 75 | 60 | 1.0 | 3.0 | 0.00 | 0.01 | 0.01 | 79 | 1012.2 |
| 20260905150553 | 75 | 60 | 2.0 | 3.0 | 0.00 | 0.01 | 0.01 | 78 | 1012.2 |
| 20260905150106 | 75 | 68 | 1.0 | 4.0 | 0.00 | 0.01 | 0.01 | 79 | 1012.3 |
| 20260905145555 | 75 | 329 | 1.0 | 4.0 | 0.00 | 0.01 | 0.01 | 79 | 1012.3 |
| 20260905145055 | 75 | 75 | 1.0 | 4.0 | 0.00 | 0.01 | 0.01 | 81 | 1012.3 |
| 20260905144609 | 75 | 48 | 2.0 | 5.0 | 0.00 | 0.01 | 0.01 | 79 | 1012.2 |
| 20260905144058 | 75 | 63 | 1.0 | 5.0 | 0.00 | 0.01 | 0.01 | 79 | 1012.1 |
| 20260905143554 | 75 | 68 | 1.0 | 5.0 | 0.00 | 0.01 | 0.01 | 79 | 1012.1 |
| 20260905143107 | 75 | 352 | 1.0 | 4.0 | 0.00 | 0.01 | 0.01 | 80 | 1012.0 |
| 20260905142554 | 75 | 0 | 1.0 | 4.0 | 0.00 | 0.01 | 0.01 | 81 | 1011.9 |
| 20260905142055 | 75 | 63 | 2.0 | 4.0 | 0.00 | 0.01 | 0.01 | 81 | 1012.0 |
| 20260905141604 | 75 | 62 | 2.0 | 4.0 | 0.00 | 0.01 | 0.01 | 82 | 1011.9 |
| 20260905141053 | 75 | 55 | 1.0 | 5.0 | 0.00 | 0.01 | 0.01 | 82 | 1011.9 |
| 20260905140554 | 75 | 59 | 2.0 | 5.0 | 0.00 | 0.01 | 0.01 | 82 | 1011.8 |
| 20260905140103 | 75 | 340 | 3.0 | 5.0 | 0.00 | 0.01 | 0.01 | 81 | 1011.7 |
| 20260905135553 | 76 | 68 | 1.0 | 5.0 | 0.00 | 0.01 | 0.01 | 81 | 1011.8 |
| 20260905135057 | 75 | 45 | 1.0 | 4.0 | 0.00 | 0.01 | 0.01 | 81 | 1011.7 |
| 20260905134603 | 75 | 356 | 1.0 | 4.0 | 0.00 | 0.01 | 0.01 | 82 | 1011.6 |
| 20260905134057 | 75 | 58 | 1.0 | 6.0 | 0.00 | 0.01 | 0.01 | 81 | 1011.6 |
| 20260905133555 | 75 | 31 | 2.0 | 6.0 | 0.00 | 0.01 | 0.01 | 81 | 1011.5 |
| 20260905133102 | 75 | 51 | 4.0 | 6.0 | 0.00 | 0.01 | 0.01 | 80 | 1011.5 |
| 20260905132555 | 75 | 8 | 2.0 | 5.0 | 0.00 | 0.01 | 0.01 | 80 | 1011.5 |
| 20260905132052 | 75 | 49 | 1.0 | 5.0 | 0.00 | 0.01 | 0.01 | 84 | 1011.5 |
| 20260905131602 | 75 | 69 | 2.0 | 5.0 | 0.00 | 0.01 | 0.01 | 84 | 1011.5 |
| 20260905131055 | 75 | 48 | 2.0 | 5.0 | 0.00 | 0.01 | 0.01 | 86 | 1011.3 |
| 20260905130559 | 74 | 70 | 2.0 | 5.0 | 0.00 | 0.01 | 0.01 | 87 | 1011.3 |
| 20260905130059 | 74 | 66 | 1.0 | 4.0 | 0.00 | 0.01 | 0.01 | 87 | 1011.3 |
| 20260905125553 | 74 | 60 | 1.0 | 3.0 | 0.00 | 0.01 | 0.01 | 89 | 1011.2 |
| 20260905125054 | 74 | 37 | 1.0 | 5.0 | 0.00 | 0.01 | 0.01 | 90 | 1011.2 |
| 20260905124601 | 74 | 27 | 1.0 | 5.0 | 0.00 | 0.01 | 0.01 | 90 | 1011.2 |
| 20260905124054 | 74 | 86 | 1.0 | 3.0 | 0.00 | 0.01 | 0.01 | 91 | 1011.3 |
| 20260905123554 | 73 | 44 | 1.0 | 2.0 | 0.00 | 0.01 | 0.01 | 91 | 1011.3 |
| 20260905123105 | 73 | 48 | 0.0 | 3.0 | 0.00 | 0.01 | 0.01 | 92 | 1011.4 |
| 20260905122554 | 73 | 46 | 0.0 | 3.0 | 0.00 | 0.01 | 0.01 | 93 | 1011.4 |
| 20260905122055 | 73 | 46 | 0.0 | 1.0 | 0.00 | 0.01 | 0.01 | 94 | 1011.4 |
| 20260905121559 | 73 | 60 | 0.0 | 2.0 | 0.00 | 0.01 | 0.01 | 94 | 1011.4 |
| 20260905121054 | 73 | 60 | 0.0 | 2.0 | 0.00 | 0.01 | 0.01 | 95 | 1011.3 |
| 20260905120554 | 73 | 60 | 1.0 | 2.0 | 0.00 | 0.01 | 0.01 | 95 | 1011.3 |
| 20260905120101 | 73 | 53 | 0.0 | 2.0 | 0.00 | 0.01 | 0.01 | 96 | 1011.3 |
| 20260905115554 | 72 | 53 | 1.0 | 2.0 | 0.00 | 0.01 | 0.01 | 96 | 1011.3 |
| 20260905115055 | 72 | 0 | 0.0 | 1.0 | 0.00 | 0.01 | 0.01 | 96 | 1011.0 |
| 20260905114610 | 72 | 0 | 0.0 | 1.0 | 0.00 | 0.01 | 0.01 | 97 | 1011.0 |
| 20260905114054 | 72 | 0 | 0.0 | 0.0 | 0.00 | 0.01 | 0.01 | 97 | 1010.9 |
| 20260905113555 | 72 | 0 | 0.0 | 1.0 | 0.00 | 0.01 | 0.01 | 97 | 1011.0 |
| 20260905113101 | 72 | 0 | 0.0 | 1.0 | 0.00 | 0.01 | 0.01 | 97 | 1010.9 |
| 20260905112555 | 72 | 0 | 0.0 | 1.0 | 0.00 | 0.01 | 0.01 | 97 | 1010.9 |
| 20260905112055 | 72 | 0 | 0.0 | 0.0 | 0.00 | 0.01 | 0.01 | 97 | 1010.9 |
| 20260905111627 | 72 | 0 | 0.0 | 0.0 | 0.00 | 0.01 | 0.01 | 97 | 1010.7 |
| 20260905111052 | 72 | 0 | 0.0 | 0.0 | 0.00 | 0.01 | 0.01 | 97 | 1010.7 |
| 20260905110553 | 72 | 0 | 0.0 | 0.0 | 0.00 | 0.01 | 0.01 | 97 | 1010.6 |
| 20260905110112 | 72 | 0 | 0.0 | 0.0 | 0.00 | 0.01 | 0.01 | 97 | 1010.6 |
| 20260905105553 | 72 | 0 | 0.0 | 0.0 | 0.00 | 0.01 | 0.01 | 97 | 1010.5 |
| 20260905105055 | 72 | 0 | 0.0 | 0.0 | 0.00 | 0.01 | 0.01 | 97 | 1010.5 |
| 20260905104619 | 72 | 0 | 0.0 | 0.0 | 0.00 | 0.01 | 0.01 | 97 | 1010.4 |
| 20260905104059 | 72 | 0 | 0.0 | 0.0 | 0.00 | 0.01 | 0.01 | 97 | 1010.4 |
| 20260905103554 | 72 | 0 | 0.0 | 0.0 | 0.00 | 0.01 | 0.01 | 97 | 1010.3 |
| 20260905103102 | 72 | 0 | 0.0 | 0.0 | 0.00 | 0.01 | 0.01 | 97 | 1010.2 |
| 20260905102553 | 73 | 0 | 0.0 | 1.0 | 0.00 | 0.01 | 0.01 | 97 | 1010.1 |
| 20260905102054 | 73 | 0 | 0.0 | 1.0 | 0.00 | 0.01 | 0.01 | 97 | 1010.0 |
| 20260905101559 | 73 | 0 | 0.0 | 1.0 | 0.00 | 0.01 | 0.01 | 97 | 1010.1 |
| 20260905101053 | 73 | 0 | 0.0 | 1.0 | 0.00 | 0.01 | 0.01 | 97 | 1009.9 |
| 20260905100553 | 73 | 0 | 0.0 | 1.0 | 0.00 | 0.01 | 0.01 | 97 | 1009.9 |
| 20260905100105 | 73 | 46 | 0.0 | 2.0 | 0.00 | 0.01 | 0.01 | 97 | 1009.8 |
| 20260905095553 | 73 | 46 | 0.0 | 2.0 | 0.00 | 0.01 | 0.01 | 97 | 1009.8 |
| 20260905095055 | 73 | 30 | 0.0 | 1.0 | 0.00 | 0.01 | 0.01 | 97 | 1009.7 |
| 20260905094717 | 73 | 0 | 0.0 | 1.0 | 0.00 | 0.01 | 0.01 | 97 | 1009.8 |
| 20260905094056 | 73 | 30 | 0.0 | 1.0 | 0.00 | 0.01 | 0.01 | 97 | 1009.8 |
| 20260905093554 | 73 | 0 | 0.0 | 1.0 | 0.00 | 0.01 | 0.01 | 97 | 1009.8 |
| 20260905093128 | 73 | 0 | 0.0 | 1.0 | 0.00 | 0.01 | 0.01 | 97 | 1009.7 |
| 20260905092554 | 73 | 0 | 0.0 | 0.0 | 0.00 | 0.01 | 0.01 | 97 | 1009.7 |
| 20260905092054 | 73 | 0 | 0.0 | 0.0 | 0.00 | 0.01 | 0.01 | 97 | 1009.8 |
| 20260905091634 | 73 | 0 | 0.0 | 0.0 | 0.00 | 0.01 | 0.01 | 97 | 1009.8 |
| 20260905091054 | 73 | 0 | 0.0 | 0.0 | 0.00 | 0.01 | 0.01 | 97 | 1009.9 |
| 20260905090553 | 73 | 0 | 0.0 | 1.0 | 0.00 | 0.01 | 0.01 | 97 | 1009.9 |
| 20260905090103 | 73 | 0 | 0.0 | 1.0 | 0.00 | 0.01 | 0.01 | 97 | 1009.9 |
| 20260905085553 | 73 | 0 | 0.0 | 1.0 | 0.00 | 0.01 | 0.01 | 96 | 1009.9 |
| 20260905085053 | 73 | 0 | 0.0 | 1.0 | 0.00 | 0.01 | 0.01 | 96 | 1009.8 |
| 20260905084610 | 73 | 0 | 0.0 | 1.0 | 0.00 | 0.01 | 0.01 | 96 | 1009.8 |
| 20260905084054 | 73 | 15 | 0.0 | 1.0 | 0.00 | 0.01 | 0.01 | 96 | 1009.7 |
| 20260905083553 | 73 | 0 | 0.0 | 0.0 | 0.00 | 0.01 | 0.01 | 96 | 1009.7 |
| 20260905083103 | 73 | 0 | 0.0 | 0.0 | 0.00 | 0.01 | 0.01 | 96 | 1009.8 |
| 20260905082554 | 73 | 0 | 0.0 | 0.0 | 0.00 | 0.01 | 0.01 | 96 | 1009.8 |
| 20260905082057 | 73 | 0 | 0.0 | 0.0 | 0.00 | 0.01 | 0.01 | 96 | 1009.9 |
| 20260905081557 | 73 | 0 | 0.0 | 0.0 | 0.00 | 0.01 | 0.01 | 96 | 1010.0 |
| 20260905081054 | 73 | 0 | 0.0 | 0.0 | 0.00 | 0.01 | 0.01 | 96 | 1010.0 |
| 20260905080557 | 73 | 0 | 0.0 | 0.0 | 0.00 | 0.01 | 0.01 | 96 | 1010.0 |
| 20260905080118 | 73 | 0 | 0.0 | 0.0 | 0.00 | 0.01 | 0.01 | 96 | 1010.1 |
| 20260905075553 | 73 | 0 | 0.0 | 0.0 | 0.00 | 0.01 | 0.01 | 96 | 1010.1 |
| 20260905075053 | 74 | 0 | 0.0 | 0.0 | 0.00 | 0.01 | 0.01 | 96 | 1010.1 |
| 20260905074606 | 74 | 0 | 0.0 | 0.0 | 0.00 | 0.01 | 0.01 | 96 | 1010.1 |
| 20260905074053 | 74 | 0 | 0.0 | 0.0 | 0.00 | 0.01 | 0.01 | 96 | 1010.0 |
| 20260905073554 | 74 | 0 | 0.0 | 0.0 | 0.00 | 0.01 | 0.01 | 96 | 1010.0 |
| 20260905073110 | 74 | 0 | 0.0 | 0.0 | 0.00 | 0.01 | 0.01 | 96 | 1010.0 |
| 20260905072554 | 74 | 0 | 0.0 | 0.0 | 0.00 | 0.01 | 0.01 | 96 | 1010.1 |
| 20260905072057 | 74 | 0 | 0.0 | 0.0 | 0.00 | 0.01 | 0.01 | 96 | 1010.1 |
| 20260905071559 | 74 | 0 | 0.0 | 1.0 | 0.00 | 0.01 | 0.01 | 96 | 1010.2 |
| 20260905071054 | 74 | 0 | 0.0 | 1.0 | 0.00 | 0.01 | 0.01 | 96 | 1010.2 |
| 20260905070553 | 74 | 0 | 0.0 | 1.0 | 0.00 | 0.01 | 0.01 | 96 | 1010.2 |
| 20260905070101 | 75 | 0 | 0.0 | 2.0 | 0.00 | 0.01 | 0.01 | 96 | 1010.2 |
| 20260905065555 | 75 | 0 | 0.0 | 2.0 | 0.00 | 0.13 | 0.01 | 96 | 1010.3 |
| 20260905065053 | 75 | 8 | 1.0 | 2.0 | 0.00 | 0.13 | 0.01 | 96 | 1010.2 |
| 20260905064559 | 75 | 0 | 0.0 | 1.0 | 0.00 | 0.13 | 0.01 | 96 | 1010.3 |
| 20260905064053 | 75 | 0 | 0.0 | 1.0 | 0.00 | 0.13 | 0.01 | 96 | 1010.3 |
| 20260905063553 | 75 | 65 | 0.0 | 1.0 | 0.00 | 0.13 | 0.01 | 96 | 1010.3 |
| 20260905063103 | 75 | 0 | 0.0 | 1.0 | 0.00 | 0.13 | 0.01 | 96 | 1010.3 |
| 20260905062553 | 75 | 64 | 0.0 | 1.0 | 0.00 | 0.13 | 0.01 | 96 | 1010.4 |
| 20260905062053 | 75 | 65 | 0.0 | 1.0 | 0.00 | 0.13 | 0.01 | 96 | 1010.4 |
| 20260905061607 | 75 | 0 | 0.0 | 4.0 | 0.00 | 0.13 | 0.01 | 96 | 1010.5 |
| 20260905061057 | 75 | 0 | 1.0 | 6.0 | 0.00 | 0.13 | 0.01 | 96 | 1010.6 |
| 20260905060553 | 75 | 60 | 4.0 | 6.0 | 0.00 | 0.13 | 0.01 | 96 | 1010.6 |
| 20260905060110 | 75 | 0 | 0.0 | 0.0 | 0.00 | 0.13 | 0.01 | 96 | 1010.4 |
| 20260905055554 | 75 | 0 | 0.0 | 0.0 | 0.00 | 0.16 | 0.01 | 96 | 1010.3 |
| 20260905055053 | 75 | 0 | 0.0 | 0.0 | 0.00 | 0.16 | 0.01 | 96 | 1010.4 |
| 20260905054608 | 75 | 0 | 0.0 | 0.0 | 0.00 | 0.16 | 0.01 | 96 | 1010.4 |
| 20260905054057 | 75 | 0 | 0.0 | 0.0 | 0.00 | 0.16 | 0.01 | 96 | 1010.5 |
| 20260905053600 | 75 | 0 | 0.0 | 0.0 | 0.00 | 0.16 | 0.01 | 96 | 1010.5 |
| 20260905053058 | 75 | 0 | 0.0 | 0.0 | 0.00 | 0.16 | 0.01 | 96 | 1010.7 |
| 20260905052555 | 75 | 0 | 0.0 | 0.0 | 0.00 | 0.16 | 0.01 | 95 | 1010.6 |
| 20260905052056 | 75 | 0 | 0.0 | 0.0 | 0.00 | 0.16 | 0.01 | 95 | 1010.7 |
| 20260905051611 | 75 | 0 | 0.0 | 0.0 | 0.00 | 0.16 | 0.01 | 95 | 1010.7 |
| 20260905051056 | 75 | 0 | 0.0 | 0.0 | 0.00 | 0.16 | 0.01 | 95 | 1010.8 |
| 20260905050556 | 75 | 0 | 0.0 | 0.0 | 0.01 | 0.16 | 0.01 | 95 | 1010.7 |
| 20260905050111 | 75 | 0 | 0.0 | 0.0 | 0.01 | 0.16 | 0.01 | 95 | 1010.7 |
| 20260905045553 | 75 | 0 | 0.0 | 0.0 | 0.01 | 0.16 | 0.01 | 95 | 1010.7 |
| 20260905045053 | 75 | 0 | 0.0 | 0.0 | 0.01 | 0.16 | 0.01 | 95 | 1010.7 |
| 20260905044605 | 75 | 0 | 0.0 | 1.0 | 0.01 | 0.16 | 0.01 | 95 | 1010.8 |
| 20260905044053 | 75 | 0 | 0.0 | 1.0 | 0.01 | 0.16 | 0.01 | 95 | 1010.9 |
| 20260905043556 | 76 | 0 | 0.0 | 1.0 | 0.01 | 0.16 | 0.01 | 94 | 1010.9 |
| 20260905043100 | 76 | 0 | 0.0 | 1.0 | 0.01 | 0.16 | 0.01 | 94 | 1010.9 |
| 20260905042558 | 76 | 0 | 0.0 | 1.0 | 0.01 | 0.16 | 0.01 | 94 | 1011.0 |
| 20260905042054 | 76 | 0 | 0.0 | 0.0 | 0.01 | 0.16 | 0.01 | 93 | 1011.1 |
| 20260905041611 | 76 | 0 | 0.0 | 1.0 | 0.01 | 0.16 | 0.01 | 93 | 1011.1 |
| 20260905041053 | 76 | 0 | 0.0 | 1.0 | 0.01 | 0.16 | 0.01 | 93 | 1011.1 |
| 20260905040553 | 76 | 274 | 0.0 | 0.0 | 0.00 | 0.15 | 0.00 | 93 | 1011.1 |
| 20260905040112 | 76 | 0 | 0.0 | 0.0 | 0.00 | 0.15 | 0.00 | 92 | 1010.9 |
| 20260905035554 | 76 | 0 | 0.0 | 0.0 | 0.00 | 0.15 | 0.15 | 92 | 1011.0 |
| 20260905035053 | 76 | 0 | 0.0 | 0.0 | 0.00 | 0.15 | 0.15 | 92 | 1010.9 |
| 20260905034607 | 76 | 0 | 0.0 | 0.0 | 0.00 | 0.15 | 0.15 | 92 | 1011.0 |
| 20260905034052 | 76 | 0 | 0.0 | 0.0 | 0.00 | 0.15 | 0.15 | 92 | 1011.0 |
| 20260905033554 | 76 | 0 | 0.0 | 0.0 | 0.00 | 0.15 | 0.15 | 92 | 1011.2 |
| 20260905033108 | 76 | 0 | 0.0 | 0.0 | 0.00 | 0.15 | 0.15 | 92 | 1011.2 |
| 20260905032555 | 76 | 0 | 0.0 | 0.0 | 0.00 | 0.15 | 0.15 | 92 | 1011.2 |
| 20260905032053 | 76 | 0 | 0.0 | 0.0 | 0.00 | 0.15 | 0.15 | 92 | 1011.3 |
| 20260905031604 | 76 | 0 | 0.0 | 0.0 | 0.00 | 0.15 | 0.15 | 92 | 1011.4 |
| 20260905031053 | 76 | 0 | 0.0 | 0.0 | 0.00 | 0.15 | 0.15 | 92 | 1011.4 |
| 20260905030553 | 76 | 0 | 0.0 | 0.0 | 0.00 | 0.15 | 0.15 | 92 | 1011.5 |
| 20260905030110 | 76 | 0 | 0.0 | 0.0 | 0.00 | 0.15 | 0.15 | 92 | 1011.5 |
| 20260905025553 | 76 | 0 | 0.0 | 0.0 | 0.00 | 0.15 | 0.15 | 92 | 1011.6 |
| 20260905025053 | 76 | 0 | 0.0 | 0.0 | 0.00 | 0.15 | 0.15 | 92 | 1011.7 |
| 20260905024613 | 76 | 0 | 0.0 | 0.0 | 0.00 | 0.15 | 0.15 | 92 | 1011.6 |
| 20260905024057 | 76 | 0 | 0.0 | 0.0 | 0.00 | 0.15 | 0.15 | 92 | 1011.6 |
| 20260905023553 | 76 | 0 | 0.0 | 0.0 | 0.00 | 0.15 | 0.15 | 92 | 1011.6 |
| 20260905023102 | 76 | 0 | 0.0 | 0.0 | 0.00 | 0.15 | 0.15 | 92 | 1011.6 |
| 20260905022552 | 76 | 0 | 0.0 | 0.0 | 0.00 | 0.15 | 0.15 | 92 | 1011.6 |
| 20260905022052 | 76 | 0 | 0.0 | 0.0 | 0.00 | 0.15 | 0.15 | 92 | 1011.6 |
| 20260905021608 | 76 | 0 | 0.0 | 0.0 | 0.00 | 0.15 | 0.15 | 92 | 1011.7 |
| 20260905021054 | 76 | 0 | 0.0 | 0.0 | 0.00 | 0.15 | 0.15 | 92 | 1011.6 |
| 20260905020553 | 76 | 0 | 0.0 | 0.0 | 0.00 | 0.15 | 0.15 | 92 | 1011.6 |
| 20260905020104 | 76 | 0 | 0.0 | 0.0 | 0.00 | 0.15 | 0.15 | 92 | 1011.4 |
| 20260905015553 | 76 | 0 | 0.0 | 0.0 | 0.00 | 0.15 | 0.15 | 92 | 1011.4 |
| 20260905015053 | 76 | 0 | 0.0 | 0.0 | 0.00 | 0.15 | 0.15 | 92 | 1011.5 |
| 20260905014605 | 76 | 0 | 0.0 | 0.0 | 0.00 | 0.15 | 0.15 | 92 | 1011.4 |
| 20260905014053 | 76 | 0 | 0.0 | 0.0 | 0.00 | 0.15 | 0.15 | 92 | 1011.3 |
| 20260905013553 | 76 | 0 | 0.0 | 1.0 | 0.00 | 0.15 | 0.15 | 92 | 1011.4 |
| 20260905013120 | 76 | 0 | 0.0 | 1.0 | 0.00 | 0.15 | 0.15 | 92 | 1011.3 |
| 20260905012553 | 76 | 0 | 0.0 | 1.0 | 0.00 | 0.15 | 0.15 | 92 | 1011.4 |
| 20260905012053 | 76 | 274 | 0.0 | 0.0 | 0.00 | 0.15 | 0.15 | 92 | 1011.4 |
| 20260905011610 | 77 | 0 | 0.0 | 0.0 | 0.00 | 0.15 | 0.15 | 92 | 1011.5 |
| 20260905011053 | 77 | 0 | 0.0 | 0.0 | 0.00 | 0.15 | 0.15 | 92 | 1011.4 |
| 20260905010556 | 77 | 0 | 0.0 | 0.0 | 0.00 | 0.15 | 0.15 | 92 | 1011.4 |
| 20260905010106 | 77 | 0 | 0.0 | 0.0 | 0.00 | 0.15 | 0.15 | 92 | 1011.4 |
| 20260905005553 | 77 | 0 | 0.0 | 1.0 | 0.00 | 0.15 | 0.15 | 92 | 1011.4 |
| 20260905005053 | 77 | 0 | 0.0 | 1.0 | 0.00 | 0.15 | 0.15 | 91 | 1011.4 |
| 20260905004600 | 77 | 0 | 0.0 | 1.0 | 0.00 | 0.15 | 0.15 | 91 | 1011.5 |
| 20260905004056 | 77 | 0 | 0.0 | 0.0 | 0.00 | 0.15 | 0.15 | 91 | 1011.6 |
| 20260905003553 | 77 | 0 | 0.0 | 0.0 | 0.00 | 0.15 | 0.15 | 91 | 1011.7 |
| 20260905003102 | 77 | 0 | 0.0 | 1.0 | 0.00 | 0.15 | 0.15 | 91 | 1011.6 |
| 20260905002556 | 77 | 0 | 0.0 | 1.0 | 0.00 | 0.15 | 0.15 | 91 | 1011.4 |
| 20260905002056 | 77 | 0 | 0.0 | 1.0 | 0.00 | 0.15 | 0.15 | 90 | 1011.3 |
| 20260905001601 | 77 | 0 | 0.0 | 0.0 | 0.00 | 0.15 | 0.15 | 90 | 1011.2 |
| 20260905001052 | 78 | 0 | 0.0 | 0.0 | 0.00 | 0.15 | 0.15 | 90 | 1011.1 |
| 20260905000559 | 78 | 0 | 0.0 | 0.0 | 0.00 | 0.15 | 0.15 | 90 | 1011.1 |
| 20260905000109 | 78 | 0 | 0.0 | 0.0 | 0.00 | 0.15 | 0.15 | 89 | 1011.1 |
| 20260904235553 | 78 | 0 | 0.0 | 0.0 | 0.00 | 0.15 | 0.15 | 89 | 1011.1 |
| 20260904235100 | 78 | 0 | 0.0 | 0.0 | 0.00 | 0.15 | 0.15 | 88 | 1011.0 |
| 20260904234608 | 78 | 0 | 0.0 | 0.0 | 0.00 | 0.15 | 0.15 | 88 | 1011.0 |
| 20260904234056 | 78 | 0 | 0.0 | 0.0 | 0.00 | 0.15 | 0.15 | 88 | 1011.1 |
| 20260904233553 | 78 | 0 | 0.0 | 0.0 | 0.00 | 0.15 | 0.15 | 88 | 1011.0 |
| 20260904233109 | 78 | 0 | 0.0 | 0.0 | 0.00 | 0.15 | 0.15 | 88 | 1011.0 |
| 20260904232552 | 79 | 0 | 0.0 | 1.0 | 0.00 | 0.15 | 0.15 | 88 | 1011.0 |
| 20260904232053 | 79 | 0 | 0.0 | 1.0 | 0.00 | 0.15 | 0.15 | 88 | 1010.9 |
| 20260904231606 | 79 | 296 | 0.0 | 1.0 | 0.00 | 0.15 | 0.15 | 88 | 1011.0 |
| 20260904231052 | 79 | 0 | 0.0 | 0.0 | 0.00 | 0.15 | 0.15 | 88 | 1011.1 |
| 20260904230558 | 79 | 0 | 0.0 | 0.0 | 0.00 | 0.15 | 0.15 | 88 | 1011.1 |
| 20260904230113 | 79 | 0 | 0.0 | 1.0 | 0.00 | 0.15 | 0.15 | 87 | 1011.2 |
| 20260904225552 | 80 | 0 | 0.0 | 1.0 | 0.00 | 0.15 | 0.15 | 87 | 1011.2 |
| 20260904225054 | 80 | 297 | 0.0 | 1.0 | 0.00 | 0.15 | 0.15 | 87 | 1011.3 |
| 20260904224618 | 80 | 297 | 0.0 | 1.0 | 0.00 | 0.15 | 0.15 | 87 | 1011.5 |
| 20260904224057 | 80 | 0 | 0.0 | 1.0 | 0.00 | 0.15 | 0.15 | 86 | 1011.6 |
| 20260904223557 | 80 | 0 | 0.0 | 1.0 | 0.00 | 0.15 | 0.15 | 86 | 1011.8 |
| 20260904223111 | 80 | 299 | 0.0 | 1.0 | 0.00 | 0.15 | 0.15 | 85 | 1011.8 |
| 20260904222552 | 80 | 0 | 0.0 | 0.0 | 0.00 | 0.15 | 0.15 | 84 | 1011.9 |
| 20260904222052 | 81 | 0 | 0.0 | 0.0 | 0.00 | 0.15 | 0.15 | 84 | 1012.0 |
| 20260904221628 | 81 | 0 | 0.0 | 0.0 | 0.00 | 0.15 | 0.15 | 83 | 1012.0 |
| 20260904221056 | 81 | 0 | 0.0 | 0.0 | 0.00 | 0.15 | 0.15 | 83 | 1011.8 |
| 20260904220553 | 81 | 0 | 0.0 | 1.0 | 0.00 | 0.15 | 0.15 | 82 | 1011.7 |
| 20260904220108 | 81 | 0 | 0.0 | 1.0 | 0.00 | 0.15 | 0.15 | 82 | 1011.7 |
| 20260904215559 | 81 | 298 | 0.0 | 0.0 | 0.00 | 0.15 | 0.15 | 82 | 1011.7 |
| 20260904215058 | 81 | 0 | 0.0 | 1.0 | 0.00 | 0.15 | 0.15 | 82 | 1011.7 |
| 20260904214607 | 82 | 0 | 0.0 | 1.0 | 0.00 | 0.15 | 0.15 | 82 | 1011.9 |
| 20260904214055 | 82 | 299 | 0.0 | 1.0 | 0.00 | 0.15 | 0.15 | 81 | 1011.9 |
| 20260904213555 | 82 | 323 | 0.0 | 0.0 | 0.00 | 0.15 | 0.15 | 81 | 1011.9 |
| 20260904213102 | 83 | 0 | 0.0 | 1.0 | 0.00 | 0.15 | 0.15 | 80 | 1011.9 |
| 20260904212555 | 83 | 0 | 0.0 | 2.0 | 0.00 | 0.15 | 0.15 | 77 | 1011.9 |
| 20260904212056 | 83 | 0 | 0.0 | 2.0 | 0.00 | 0.15 | 0.15 | 78 | 1012.1 |
| 20260904211559 | 83 | 0 | 0.0 | 2.0 | 0.00 | 0.15 | 0.15 | 78 | 1012.1 |
| 20260904211055 | 83 | 0 | 1.0 | 2.0 | 0.00 | 0.15 | 0.15 | 77 | 1012.3 |
| 20260904210556 | 83 | 322 | 1.0 | 1.0 | 0.00 | 0.15 | 0.15 | 78 | 1012.0 |
| 20260904210116 | 83 | 322 | 0.0 | 1.0 | 0.00 | 0.15 | 0.15 | 79 | 1011.7 |
| 20260904205556 | 83 | 0 | 0.0 | 1.0 | 0.00 | 0.15 | 0.15 | 78 | 1011.6 |
| 20260904205055 | 83 | 322 | 0.0 | 0.0 | 0.00 | 0.15 | 0.15 | 78 | 1011.8 |
| 20260904204609 | 84 | 0 | 0.0 | 2.0 | 0.00 | 0.15 | 0.15 | 78 | 1011.8 |
| 20260904204058 | 84 | 0 | 0.0 | 2.0 | 0.00 | 0.15 | 0.15 | 78 | 1011.9 |
| 20260904204029 | 84 | 324 | 0.0 | 0.0 | 0.00 | 0.15 | 0.15 | 78 | 1011.9 |